Location: *
(52.2090°N, 4.1550°W)
Time: 05:23:27
(UTC+00:00)

BREEZE-M DEB (TANK) - Pass Details

Date: 19 July 2019
Orbit: 282 x 16856 km, 49.4° (Epoch: 20 August)

Event Time Altitude Azimuth Distance (km) Brightness Sun altitude
Rises 22:51:57 0° 266° (W) 2,020 5.5 -14.4°
Reaches altitude 10° 22:53:17 10° 261° (W) 1,349 4.5 -14.5°
Maximum altitude 22:55:45 57° 180° (S) 638 2.3 -14.6°
Drops below altitude 10° 23:02:08 10° 102° (ESE) 3,461 6.1 -14.9°
Sets 23:07:53 0° 101° (E) 6,088 7.3 -15.2°
